START_TIME,STEP,MOV.,M34,t_acc.,L5,t_acc.,L18,t_acc.,L14,t_acc.
1979-07-03 03:00:25.550 ,1,0,0.,12.0,0.,12.0,0.,12.0,0.,12.0
1979-07-03 03:00:37.550 ,1,0,0.,12.0,0.,12.0,0.,12.0,0.,12.0
1979-07-03 03:00:49.550 ,2,1,0.,12.0,0.,12.0,0.,12.0,0.,12.0
1979-07-03 03:01:01.550 ,2,1,0.,12.0,0.,12.0,0.,12.0,0.,12.0
1979-07-03 03:01:13.550 ,2,0,0.,12.0,0.,12.0,0.,12.0,0.,12.0
1979-07-03 03:01:25.550 ,2,0,0.,12.0,0.,12.0,0.,12.0,0.,12.0
1979-07-03 03:01:37.550 ,3,1,0.,12.0,0.,12.0,0.,12.0,0.,12.0
1979-07-03 03:01:49.550 ,3,1,0.,12.0,0.,12.0,0.,12.0,0.,12.0
1979-07-03 03:02:01.550 ,3,0,0.,12.0,0.,12.0,0.,12.0,0.,12.0
1979-07-03 03:02:13.550 ,3,0,0.,12.0,0.,12.0,0.,12.0,0.,12.0
1979-07-03 03:02:25.550 ,4,1,0.,12.0,0.,12.0,0.,12.0,0.,12.0
1979-07-03 03:02:37.550 ,4,1,0.,12.0,0.,12.0,0.,12.0,0.,12.0
1979-07-03 03:02:49.550 ,4,0,0.,12.0,0.,12.0,0.,12.0,0.,12.0
1979-07-03 03:03:01.550 ,4,0,0.,12.0,0.,12.0,0.,12.0,0.,12.0
1979-07-03 03:03:13.550 ,5,1,0.,12.0,0.,12.0,0.,12.0,0.,12.0
1979-07-03 03:03:25.550 ,5,1,0.,12.0,0.,12.0,0.,12.0,0.,12.0
1979-07-03 03:03:37.550 ,5,0,0.,12.0,0.,12.0,0.,12.0,0.,12.0
1979-07-03 03:03:49.550 ,5,0,0.,12.0,0.,12.0,0.,12.0,0.,12.0
1979-07-03 03:04:01.550 ,6,1,0.,12.0,0.,12.0,0.,12.0,0.,12.0
1979-07-03 03:04:13.550 ,6,1,0.,12.0,0.,12.0,0.,12.0,0.,12.0
1979-07-03 03:04:25.550 ,6,0,0.,12.0,0.,12.0,0.,12.0,0.,12.0
1979-07-03 03:04:37.550 ,6,0,0.,12.0,0.,12.0,0.,12.0,0.,12.0
1979-07-03 03:04:49.550 ,7,1,0.,12.0,0.,12.0,0.,12.0,0.,12.0
1979-07-03 03:05:01.550 ,7,1,0.,12.0,0.,12.0,0.,12.0,0.,12.0
1979-07-03 03:05:13.550 ,7,0,0.,12.0,0.,12.0,0.,12.0,0.,12.0
1979-07-03 03:05:25.550 ,7,0,0.,12.0,0.,12.0,0.,12.0,0.,12.0
1979-07-03 03:05:37.550 ,7,1,0.,12.0,0.,12.0,0.,12.0,0.,12.0
1979-07-03 03:05:49.550 ,7,1,0.,12.0,0.,12.0,0.,12.0,0.,12.0
1979-07-03 03:06:01.550 ,7,0,0.,12.0,0.,12.0,0.,12.0,0.,12.0
1979-07-03 03:06:13.550 ,7,0,0.,12.0,0.,12.0,0.,12.0,0.,12.0
1979-07-03 03:06:25.550 ,6,1,0.,12.0,0.,12.0,0.,12.0,0.,12.0
1979-07-03 03:06:37.550 ,6,1,0.,12.0,0.,12.0,0.,12.0,0.,12.0
1979-07-03 03:06:49.550 ,6,0,0.,12.0,0.,12.0,0.,12.0,0.,12.0
1979-07-03 03:07:01.550 ,6,0,0.,12.0,0.,12.0,0.,12.0,0.,12.0
1979-07-03 03:07:13.550 ,5,1,0.,12.0,0.,12.0,0.,12.0,0.,12.0
1979-07-03 03:07:25.550 ,5,1,0.,12.0,0.,12.0,0.,12.0,0.,12.0
1979-07-03 03:07:37.550 ,5,0,0.,12.0,0.,12.0,0.,12.0,0.,12.0
1979-07-03 03:07:49.550 ,5,0,0.,12.0,0.,12.0,0.,12.0,0.,12.0
1979-07-03 03:08:01.550 ,4,1,0.,12.0,0.,12.0,0.,12.0,1.,12.0
1979-07-03 03:08:13.550 ,4,1,0.,12.0,0.,12.0,0.,12.0,0.,12.0
1979-07-03 03:08:25.550 ,4,0,0.,12.0,0.,12.0,0.,12.0,0.,12.0
1979-07-03 03:08:37.550 ,4,0,0.,12.0,0.,12.0,0.,12.0,0.,12.0
1979-07-03 03:08:49.550 ,3,1,0.,12.0,0.,12.0,0.,12.0,0.,12.0
1979-07-03 03:09:01.550 ,3,1,0.,12.0,0.,12.0,0.,12.0,0.,12.0
1979-07-03 03:09:13.550 ,3,0,0.,12.0,0.,12.0,0.,12.0,0.,12.0
1979-07-03 03:09:25.550 ,3,0,0.,12.0,0.,12.0,0.,12.0,0.,12.0
1979-07-03 03:09:37.550 ,2,1,0.,12.0,0.,12.0,0.,12.0,0.,12.0
1979-07-03 03:09:49.550 ,2,1,0.,12.0,0.,12.0,0.,12.0,0.,12.0
1979-07-03 03:10:01.550 ,2,0,0.,12.0,0.,12.0,0.,12.0,0.,12.0
1979-07-03 03:10:13.550 ,2,0,0.,12.0,0.,12.0,0.,12.0,0.,12.0
1979-07-03 03:10:25.540 ,1,1,0.,12.0,0.,12.0,0.,12.0,0.,12.0
1979-07-03 03:10:37.540 ,1,1,0.,12.0,0.,12.0,0.,12.0,0.,12.0
1979-07-03 03:10:49.540 ,1,0,0.,12.0,0.,12.0,0.,12.0,0.,12.0
1979-07-03 03:11:01.540 ,1,0,0.,12.0,0.,12.0,0.,12.0,0.,12.0
1979-07-03 03:11:13.540 ,0,1,0.,12.0,0.,12.0,0.,12.0,0.,12.0
1979-07-03 03:11:25.540 ,0,1,0.,12.0,0.,12.0,0.,12.0,0.,12.0
1979-07-03 03:11:37.540 ,0,0,0.,12.0,0.,12.0,0.,12.0,0.,12.0
1979-07-03 03:11:49.540 ,0,0,0.,12.0,0.,12.0,0.,12.0,0.,12.0
1979-07-03 03:12:01.540 ,0,1,0.,12.0,0.,12.0,0.,12.0,0.,12.0
1979-07-03 03:12:13.540 ,0,1,0.,12.0,0.,12.0,0.,12.0,0.,12.0
1979-07-03 03:12:25.540 ,0,0,0.,12.0,0.,12.0,0.,12.0,0.,12.0
1979-07-03 03:12:37.540 ,0,0,0.,12.0,0.,12.0,0.,12.0,0.,12.0
1979-07-03 03:12:49.540 ,1,1,0.,12.0,0.,12.0,0.,12.0,0.,12.0
1979-07-03 03:13:01.540 ,1,1,0.,12.0,0.,12.0,0.,12.0,0.,12.0
1979-07-03 03:13:13.540 ,1,0,0.,12.0,0.,12.0,0.,12.0,0.,12.0
1979-07-03 03:13:25.540 ,1,0,0.,12.0,0.,12.0,0.,12.0,0.,12.0
1979-07-03 03:13:37.540 ,2,1,0.,12.0,0.,12.0,0.,12.0,0.,12.0
1979-07-03 03:13:49.540 ,2,1,0.,12.0,0.,12.0,0.,12.0,0.,12.0
1979-07-03 03:14:01.540 ,2,0,,0,,0,,0,,0
1979-07-03 03:14:13.540 ,2,0,0.,12.0,0.,12.0,0.,12.0,0.,12.0
1979-07-03 03:14:25.540 ,3,1,0.,12.0,0.,12.0,0.,12.0,0.,12.0
1979-07-03 03:14:37.540 ,3,1,0.,12.0,0.,12.0,0.,12.0,0.,12.0
1979-07-03 03:14:49.540 ,3,0,0.,12.0,0.,12.0,0.,12.0,0.,12.0
1979-07-03 03:15:01.540 ,3,0,0.,12.0,0.,12.0,0.,12.0,0.,12.0
1979-07-03 03:15:13.540 ,4,1,0.,12.0,0.,12.0,0.,12.0,0.,12.0
1979-07-03 03:15:25.540 ,4,1,0.,12.0,0.,12.0,0.,12.0,0.,12.0
1979-07-03 03:15:37.540 ,4,0,0.,12.0,0.,12.0,0.,12.0,0.,12.0
1979-07-03 03:15:49.540 ,4,0,0.,12.0,0.,12.0,0.,12.0,0.,12.0
1979-07-03 03:16:01.540 ,5,1,0.,12.0,0.,12.0,0.,12.0,0.,12.0
1979-07-03 03:16:13.540 ,5,1,0.,12.0,0.,12.0,0.,12.0,0.,12.0
1979-07-03 03:16:25.540 ,5,0,0.,12.0,0.,12.0,1.,12.0,0.,12.0
1979-07-03 03:16:37.540 ,5,0,0.,12.0,0.,12.0,0.,12.0,0.,12.0
1979-07-03 03:16:49.540 ,6,1,0.,12.0,0.,12.0,0.,12.0,0.,12.0
1979-07-03 03:17:01.540 ,6,1,0.,12.0,0.,12.0,0.,12.0,0.,12.0
1979-07-03 03:17:13.540 ,6,0,0.,12.0,0.,12.0,0.,12.0,0.,12.0
1979-07-03 03:17:25.540 ,6,0,0.,12.0,0.,12.0,0.,12.0,0.,12.0
1979-07-03 03:17:37.540 ,7,1,0.,12.0,0.,12.0,0.,12.0,0.,12.0
1979-07-03 03:17:49.540 ,7,1,0.,12.0,0.,12.0,0.,12.0,0.,12.0
1979-07-03 03:18:01.540 ,7,0,0.,12.0,0.,12.0,0.,12.0,0.,12.0
1979-07-03 03:18:13.540 ,7,0,0.,12.0,0.,12.0,0.,12.0,0.,12.0
1979-07-03 03:18:25.540 ,7,1,0.,12.0,0.,12.0,0.,12.0,0.,12.0
1979-07-03 03:18:37.540 ,7,1,0.,12.0,0.,12.0,0.,12.0,0.,12.0
1979-07-03 03:18:49.540 ,7,0,0.,12.0,0.,12.0,0.,12.0,0.,12.0
1979-07-03 03:19:01.540 ,7,0,0.,12.0,0.,12.0,0.,12.0,0.,12.0
1979-07-03 03:19:13.540 ,6,1,0.,12.0,0.,12.0,0.,12.0,0.,12.0
1979-07-03 03:19:25.540 ,6,1,0.,12.0,0.,12.0,0.,12.0,0.,12.0
1979-07-03 03:19:37.540 ,6,0,0.,12.0,0.,12.0,0.,12.0,0.,12.0
1979-07-03 03:19:49.540 ,6,0,0.,12.0,0.,12.0,0.,12.0,0.,12.0
1979-07-03 03:20:01.540 ,5,1,0.,12.0,0.,12.0,0.,12.0,0.,12.0
1979-07-03 03:20:13.540 ,5,1,0.,12.0,0.,12.0,0.,12.0,0.,12.0
1979-07-03 03:20:25.540 ,5,0,0.,12.0,0.,12.0,0.,12.0,0.,12.0
1979-07-03 03:20:37.540 ,5,0,0.,12.0,0.,12.0,0.,12.0,0.,12.0
1979-07-03 03:20:49.540 ,4,1,0.,12.0,0.,12.0,0.,12.0,0.,12.0
1979-07-03 03:21:01.540 ,4,1,1.,12.0,0.,12.0,0.,12.0,0.,12.0
1979-07-03 03:21:13.540 ,4,0,0.,12.0,0.,12.0,0.,12.0,0.,12.0
1979-07-03 03:21:25.540 ,4,0,0.,12.0,0.,12.0,0.,12.0,0.,12.0
1979-07-03 03:21:37.540 ,3,1,0.,12.0,0.,12.0,0.,12.0,0.,12.0
1979-07-03 03:21:49.540 ,3,1,0.,12.0,0.,12.0,0.,12.0,0.,12.0
1979-07-03 03:22:01.540 ,3,0,0.,12.0,0.,12.0,0.,12.0,0.,12.0
1979-07-03 03:22:13.540 ,3,0,0.,12.0,0.,12.0,0.,12.0,0.,12.0
1979-07-03 03:22:25.540 ,2,1,0.,12.0,0.,12.0,0.,12.0,0.,12.0
1979-07-03 03:22:37.540 ,2,1,0.,12.0,0.,12.0,0.,12.0,0.,12.0
1979-07-03 03:22:49.540 ,2,0,0.,12.0,0.,12.0,0.,12.0,0.,12.0
1979-07-03 03:23:01.540 ,2,0,0.,12.0,0.,12.0,0.,12.0,0.,12.0
1979-07-03 03:23:13.540 ,1,1,0.,12.0,0.,12.0,0.,12.0,0.,12.0
1979-07-03 03:23:25.540 ,1,1,0.,12.0,0.,12.0,0.,12.0,0.,12.0
1979-07-03 03:23:37.540 ,1,0,0.,12.0,0.,12.0,0.,12.0,0.,12.0
1979-07-03 03:23:49.540 ,1,0,0.,12.0,0.,12.0,0.,12.0,0.,12.0
1979-07-03 03:24:01.540 ,0,1,0.,12.0,0.,12.0,0.,12.0,0.,12.0
1979-07-03 03:24:13.540 ,0,1,0.,12.0,0.,12.0,0.,12.0,0.,12.0
1979-07-03 03:24:25.540 ,0,0,0.,12.0,0.,12.0,0.,12.0,0.,12.0
1979-07-03 03:24:37.540 ,0,0,0.,12.0,0.,12.0,0.,12.0,0.,12.0
1979-07-03 03:24:49.540 ,0,1,0.,12.0,0.,12.0,0.,12.0,0.,12.0
1979-07-03 03:25:01.540 ,0,1,0.,12.0,0.,12.0,0.,12.0,0.,12.0
1979-07-03 03:25:13.540 ,0,0,0.,12.0,0.,12.0,0.,12.0,0.,12.0
1979-07-03 03:25:25.540 ,0,0,0.,12.0,0.,12.0,0.,12.0,0.,12.0
1979-07-03 03:25:37.540 ,1,1,0.,12.0,0.,12.0,0.,12.0,0.,12.0
1979-07-03 03:25:49.540 ,1,1,0.,12.0,0.,12.0,0.,12.0,0.,12.0
1979-07-03 03:26:01.540 ,1,0,0.,12.0,0.,12.0,0.,12.0,0.,12.0
1979-07-03 03:26:13.540 ,1,0,0.,12.0,0.,12.0,0.,12.0,0.,12.0
1979-07-03 03:26:25.540 ,2,1,0.,12.0,0.,12.0,0.,12.0,0.,12.0
1979-07-03 03:26:37.540 ,2,1,0.,12.0,0.,12.0,0.,12.0,0.,12.0
1979-07-03 03:26:49.540 ,2,0,0.,12.0,0.,12.0,0.,12.0,0.,12.0
1979-07-03 03:27:01.540 ,2,0,0.,12.0,0.,12.0,0.,12.0,0.,12.0
1979-07-03 03:27:13.540 ,3,1,0.,12.0,0.,12.0,0.,12.0,0.,12.0
1979-07-03 03:27:25.540 ,3,1,0.,12.0,0.,12.0,0.,12.0,0.,12.0
1979-07-03 03:27:37.540 ,3,0,0.,12.0,0.,12.0,0.,12.0,0.,12.0
1979-07-03 03:27:49.540 ,3,0,0.,12.0,0.,12.0,0.,12.0,0.,12.0
1979-07-03 03:28:01.540 ,4,1,0.,12.0,0.,12.0,0.,12.0,0.,12.0
1979-07-03 03:28:13.540 ,4,1,0.,12.0,0.,12.0,0.,12.0,0.,12.0
1979-07-03 03:28:25.540 ,4,0,0.,12.0,0.,12.0,0.,12.0,0.,12.0
1979-07-03 03:28:37.540 ,4,0,0.,12.0,0.,12.0,0.,12.0,0.,12.0
1979-07-03 03:28:49.540 ,5,1,0.,12.0,0.,12.0,0.,12.0,0.,12.0
1979-07-03 03:29:01.540 ,5,1,0.,12.0,0.,12.0,0.,12.0,0.,12.0
1979-07-03 03:29:13.540 ,5,0,0.,12.0,0.,12.0,0.,12.0,0.,12.0
1979-07-03 03:29:25.540 ,5,0,0.,12.0,0.,12.0,0.,12.0,0.,12.0
1979-07-03 03:29:37.540 ,6,1,0.,12.0,0.,12.0,0.,12.0,0.,12.0
1979-07-03 03:29:49.540 ,6,1,0.,12.0,0.,12.0,0.,12.0,0.,12.0
1979-07-03 03:30:01.540 ,6,0,0.,12.0,0.,12.0,0.,12.0,0.,12.0
1979-07-03 03:30:13.540 ,6,0,0.,12.0,0.,12.0,0.,12.0,0.,12.0
1979-07-03 03:30:25.540 ,7,0,0.,12.0,0.,12.0,0.,12.0,0.,12.0
1979-07-03 03:30:37.540 ,7,0,0.,12.0,0.,12.0,0.,12.0,0.,12.0
1979-07-03 03:30:49.540 ,7,0,0.,12.0,0.,12.0,0.,12.0,0.,12.0
1979-07-03 03:31:01.540 ,7,0,0.,12.0,0.,12.0,0.,12.0,0.,12.0
1979-07-03 03:31:13.540 ,4,1,0.,12.0,0.,12.0,0.,12.0,0.,12.0
1979-07-03 03:31:25.540 ,4,1,0.,12.0,0.,12.0,0.,12.0,0.,12.0
1979-07-03 03:31:37.540 ,0,1,0.,12.0,0.,12.0,0.,12.0,0.,12.0
1979-07-03 03:31:49.540 ,0,1,0.,12.0,0.,12.0,0.,12.0,0.,12.0
1979-07-03 03:32:01.540 ,3,1,0.,12.0,0.,12.0,0.,12.0,0.,12.0
1979-07-03 03:32:13.540 ,3,1,0.,12.0,0.,12.0,0.,12.0,0.,12.0
1979-07-03 03:32:25.540 ,7,1,0.,12.0,0.,12.0,0.,12.0,0.,12.0
1979-07-03 03:32:37.540 ,7,1,0.,12.0,0.,12.0,0.,12.0,0.,12.0
1979-07-03 03:32:49.540 ,4,1,0.,12.0,0.,12.0,0.,12.0,0.,12.0
1979-07-03 03:33:01.540 ,4,1,0.,12.0,0.,12.0,0.,12.0,0.,12.0
1979-07-03 03:33:13.540 ,0,1,0.,12.0,0.,12.0,0.,12.0,0.,12.0
1979-07-03 03:33:25.540 ,0,1,0.,12.0,0.,12.0,0.,12.0,0.,12.0
1979-07-03 03:33:37.540 ,3,1,0.,12.0,0.,12.0,0.,12.0,0.,12.0
1979-07-03 03:33:49.540 ,3,1,0.,12.0,0.,12.0,0.,12.0,0.,12.0
1979-07-03 03:34:01.540 ,7,1,1.,12.0,0.,12.0,0.,12.0,0.,12.0
1979-07-03 03:34:13.540 ,7,1,0.,12.0,0.,12.0,0.,12.0,0.,12.0
1979-07-03 03:34:25.540 ,4,1,0.,12.0,0.,12.0,0.,12.0,0.,12.0
1979-07-03 03:34:37.540 ,4,1,0.,12.0,0.,12.0,0.,12.0,0.,12.0
1979-07-03 03:34:49.540 ,0,1,0.,12.0,0.,12.0,0.,12.0,0.,12.0
1979-07-03 03:35:01.540 ,0,1,0.,12.0,0.,12.0,0.,12.0,0.,12.0
1979-07-03 03:35:13.540 ,3,1,0.,12.0,0.,12.0,0.,12.0,0.,12.0
1979-07-03 03:35:25.540 ,3,1,0.,12.0,0.,12.0,0.,12.0,0.,12.0
1979-07-03 03:35:37.540 ,7,1,0.,12.0,0.,12.0,0.,12.0,0.,12.0
1979-07-03 03:35:49.540 ,7,1,0.,12.0,0.,12.0,0.,12.0,0.,12.0
1979-07-03 03:36:01.540 ,4,1,0.,12.0,0.,12.0,0.,12.0,0.,12.0
1979-07-03 03:36:13.540 ,4,1,0.,12.0,0.,12.0,0.,12.0,0.,12.0
1979-07-03 03:36:25.540 ,0,1,0.,12.0,0.,12.0,0.,12.0,0.,12.0
1979-07-03 03:36:37.540 ,0,1,0.,12.0,0.,12.0,0.,12.0,0.,12.0
1979-07-03 03:36:49.540 ,3,1,0.,12.0,0.,12.0,0.,12.0,0.,12.0
1979-07-03 03:37:01.540 ,3,1,0.,12.0,0.,12.0,0.,12.0,0.,12.0
1979-07-03 03:37:13.540 ,7,1,1.,12.0,0.,12.0,0.,12.0,0.,12.0
1979-07-03 03:37:25.540 ,7,1,0.,12.0,0.,12.0,0.,12.0,0.,12.0
1979-07-03 03:37:37.540 ,4,1,0.,12.0,0.,12.0,0.,12.0,0.,12.0
1979-07-03 03:37:49.540 ,4,1,0.,12.0,0.,12.0,0.,12.0,0.,12.0
1979-07-03 03:38:01.540 ,0,1,0.,12.0,0.,12.0,0.,12.0,0.,12.0
1979-07-03 03:38:13.540 ,0,1,0.,12.0,0.,12.0,0.,12.0,0.,12.0
1979-07-03 03:38:25.540 ,3,1,0.,12.0,0.,12.0,0.,12.0,0.,12.0
1979-07-03 03:38:37.540 ,3,1,0.,12.0,0.,12.0,0.,12.0,0.,12.0
1979-07-03 03:38:49.540 ,7,1,0.,12.0,0.,12.0,0.,12.0,0.,12.0
1979-07-03 03:39:01.540 ,7,1,0.,12.0,0.,12.0,0.,12.0,0.,12.0
1979-07-03 03:39:13.540 ,4,1,0.,12.0,0.,12.0,0.,12.0,0.,12.0
1979-07-03 03:39:25.540 ,4,1,0.,12.0,0.,12.0,0.,12.0,0.,12.0
1979-07-03 03:39:37.540 ,0,1,0.,12.0,0.,12.0,0.,12.0,0.,12.0
1979-07-03 03:39:49.540 ,0,1,0.,12.0,0.,12.0,0.,12.0,0.,12.0
1979-07-03 03:40:01.540 ,3,1,0.,12.0,0.,12.0,0.,12.0,0.,12.0
1979-07-03 03:40:13.540 ,3,1,0.,12.0,0.,12.0,0.,12.0,0.,12.0
1979-07-03 03:40:25.540 ,7,1,0.,12.0,0.,12.0,0.,12.0,0.,12.0
1979-07-03 03:40:37.540 ,7,1,0.,12.0,0.,12.0,0.,12.0,0.,12.0
1979-07-03 03:40:49.540 ,4,1,0.,12.0,0.,12.0,0.,12.0,0.,12.0
1979-07-03 03:41:01.540 ,4,1,0.,12.0,0.,12.0,0.,12.0,0.,12.0
1979-07-03 03:41:13.540 ,0,1,0.,12.0,0.,12.0,0.,12.0,0.,12.0
1979-07-03 03:41:25.540 ,0,1,0.,12.0,0.,12.0,0.,12.0,0.,12.0
1979-07-03 03:41:37.540 ,0,0,0.,12.0,0.,12.0,0.,12.0,0.,12.0
1979-07-03 03:41:49.540 ,0,0,0.,12.0,0.,12.0,0.,12.0,0.,12.0
1979-07-03 03:42:01.540 ,0,0,0.,12.0,0.,12.0,0.,12.0,0.,12.0
1979-07-03 03:42:13.540 ,0,0,0.,12.0,0.,12.0,0.,12.0,0.,12.0
1979-07-03 03:42:25.540 ,5,1,0.,12.0,0.,12.0,0.,12.0,0.,12.0
1979-07-03 03:42:37.540 ,5,1,0.,12.0,0.,12.0,0.,12.0,0.,12.0
1979-07-03 03:42:49.540 ,5,0,0.,12.0,0.,12.0,0.,12.0,0.,12.0
1979-07-03 03:43:01.540 ,5,0,0.,12.0,0.,12.0,0.,12.0,0.,12.0
1979-07-03 03:43:13.540 ,4,1,0.,12.0,0.,12.0,0.,12.0,0.,12.0
1979-07-03 03:43:25.540 ,4,1,0.,12.0,0.,12.0,0.,12.0,0.,12.0
1979-07-03 03:43:37.540 ,4,0,0.,12.0,0.,12.0,0.,12.0,0.,12.0
1979-07-03 03:43:49.540 ,4,0,0.,12.0,0.,12.0,0.,12.0,0.,12.0
1979-07-03 03:44:01.540 ,3,1,0.,12.0,0.,12.0,0.,12.0,0.,12.0
1979-07-03 03:44:13.540 ,3,1,0.,12.0,0.,12.0,0.,12.0,0.,12.0
1979-07-03 03:44:25.540 ,3,0,0.,12.0,0.,12.0,0.,12.0,0.,12.0
1979-07-03 03:44:37.540 ,3,0,0.,12.0,0.,12.0,0.,12.0,0.,12.0
1979-07-03 03:44:49.540 ,2,1,0.,12.0,0.,12.0,0.,12.0,0.,12.0
1979-07-03 03:45:01.540 ,2,1,0.,12.0,0.,12.0,0.,12.0,0.,12.0
1979-07-03 03:45:13.540 ,2,0,0.,12.0,0.,12.0,0.,12.0,0.,12.0
1979-07-03 03:45:25.540 ,2,0,0.,12.0,0.,12.0,0.,12.0,0.,12.0
1979-07-03 03:45:37.540 ,1,1,0.,12.0,0.,12.0,0.,12.0,0.,12.0
1979-07-03 03:45:49.540 ,1,1,0.,12.0,0.,12.0,0.,12.0,0.,12.0
1979-07-03 03:46:01.540 ,1,0,0.,12.0,0.,12.0,0.,12.0,0.,12.0
1979-07-03 03:46:13.540 ,1,0,0.,12.0,0.,12.0,0.,12.0,0.,12.0
1979-07-03 03:46:25.540 ,0,1,0.,12.0,0.,12.0,0.,12.0,0.,12.0
1979-07-03 03:46:37.540 ,0,1,0.,12.0,0.,12.0,0.,12.0,0.,12.0
1979-07-03 03:46:49.540 ,0,0,0.,12.0,0.,12.0,0.,12.0,0.,12.0
1979-07-03 03:47:01.540 ,0,0,0.,12.0,0.,12.0,0.,12.0,0.,12.0
1979-07-03 03:47:13.540 ,0,1,0.,12.0,0.,12.0,0.,12.0,0.,12.0
1979-07-03 03:47:25.540 ,0,1,0.,12.0,0.,12.0,0.,12.0,0.,12.0
1979-07-03 03:47:37.540 ,0,0,0.,12.0,0.,12.0,0.,12.0,0.,12.0
1979-07-03 03:47:49.540 ,0,0,0.,12.0,0.,12.0,0.,12.0,0.,12.0
1979-07-03 03:48:01.540 ,1,1,0.,12.0,0.,12.0,0.,12.0,0.,12.0
1979-07-03 03:48:13.540 ,1,1,0.,12.0,0.,12.0,0.,12.0,0.,12.0
1979-07-03 03:48:25.540 ,1,0,0.,12.0,0.,12.0,0.,12.0,0.,12.0
1979-07-03 03:48:37.540 ,1,0,0.,12.0,0.,12.0,0.,12.0,0.,12.0
1979-07-03 03:48:49.540 ,2,1,0.,12.0,0.,12.0,0.,12.0,0.,12.0
1979-07-03 03:49:01.540 ,2,1,0.,12.0,0.,12.0,0.,12.0,0.,12.0
1979-07-03 03:49:13.540 ,2,0,0.,12.0,0.,12.0,0.,12.0,0.,12.0
1979-07-03 03:49:25.540 ,2,0,0.,12.0,0.,12.0,0.,12.0,0.,12.0
1979-07-03 03:49:37.540 ,3,1,0.,12.0,0.,12.0,0.,12.0,0.,12.0
1979-07-03 03:49:49.540 ,3,1,0.,12.0,0.,12.0,0.,12.0,0.,12.0
1979-07-03 03:50:01.540 ,3,0,0.,12.0,0.,12.0,0.,12.0,1.,12.0
1979-07-03 03:50:13.540 ,3,0,0.,12.0,0.,12.0,0.,12.0,0.,12.0
1979-07-03 03:50:25.540 ,4,1,0.,12.0,0.,12.0,0.,12.0,0.,12.0
1979-07-03 03:50:37.540 ,4,1,0.,12.0,0.,12.0,0.,12.0,0.,12.0
1979-07-03 03:50:49.540 ,4,0,0.,12.0,0.,12.0,0.,12.0,0.,12.0
1979-07-03 03:51:01.540 ,4,0,0.,12.0,0.,12.0,0.,12.0,0.,12.0
1979-07-03 03:51:13.540 ,5,1,0.,12.0,0.,12.0,0.,12.0,0.,12.0
1979-07-03 03:51:25.540 ,5,1,0.,12.0,0.,12.0,0.,12.0,0.,12.0
1979-07-03 03:51:37.540 ,5,0,0.,12.0,0.,12.0,0.,12.0,0.,12.0
1979-07-03 03:51:49.540 ,5,0,0.,12.0,0.,12.0,0.,12.0,0.,12.0
1979-07-03 03:52:01.540 ,6,1,0.,12.0,0.,12.0,0.,12.0,0.,12.0
1979-07-03 03:52:13.540 ,6,1,0.,12.0,0.,12.0,0.,12.0,0.,12.0
1979-07-03 03:52:25.540 ,6,0,0.,12.0,0.,12.0,0.,12.0,0.,12.0
1979-07-03 03:52:37.540 ,6,0,0.,12.0,0.,12.0,0.,12.0,0.,12.0
1979-07-03 03:52:49.540 ,7,1,0.,12.0,0.,12.0,0.,12.0,0.,12.0
1979-07-03 03:53:01.540 ,7,1,0.,12.0,0.,12.0,0.,12.0,0.,12.0
1979-07-03 03:53:13.540 ,7,0,0.,12.0,0.,12.0,0.,12.0,0.,12.0
1979-07-03 03:53:25.540 ,7,0,0.,12.0,0.,12.0,0.,12.0,0.,12.0
1979-07-03 03:53:37.540 ,7,1,0.,12.0,0.,12.0,0.,12.0,0.,12.0
1979-07-03 03:53:49.540 ,7,1,0.,12.0,0.,12.0,0.,12.0,0.,12.0
1979-07-03 03:54:01.540 ,7,0,0.,12.0,0.,12.0,0.,12.0,0.,12.0
1979-07-03 03:54:13.540 ,7,0,0.,12.0,0.,12.0,0.,12.0,0.,12.0
1979-07-03 03:54:25.540 ,6,1,0.,12.0,0.,12.0,0.,12.0,0.,12.0
1979-07-03 03:54:37.540 ,6,1,0.,12.0,0.,12.0,0.,12.0,0.,12.0
1979-07-03 03:54:49.540 ,6,0,0.,12.0,0.,12.0,0.,12.0,0.,12.0
1979-07-03 03:55:01.540 ,6,0,0.,12.0,0.,12.0,0.,12.0,0.,12.0
1979-07-03 03:55:13.540 ,5,1,0.,12.0,0.,12.0,0.,12.0,0.,12.0
1979-07-03 03:55:25.540 ,5,1,0.,12.0,0.,12.0,0.,12.0,0.,12.0
1979-07-03 03:55:37.540 ,5,0,0.,12.0,0.,12.0,0.,12.0,0.,12.0
1979-07-03 03:55:49.540 ,5,0,0.,12.0,0.,12.0,0.,12.0,0.,12.0
1979-07-03 03:56:01.540 ,4,1,0.,12.0,0.,12.0,0.,12.0,0.,12.0
1979-07-03 03:56:13.540 ,4,1,0.,12.0,0.,12.0,0.,12.0,0.,12.0
1979-07-03 03:56:25.540 ,4,0,0.,12.0,0.,12.0,0.,12.0,0.,12.0
1979-07-03 03:56:37.540 ,4,0,,0,,0,,0,,0
1979-07-03 03:56:49.540 ,3,1,0.,12.0,0.,12.0,0.,12.0,0.,12.0
1979-07-03 03:57:01.540 ,3,1,0.,12.0,0.,12.0,0.,12.0,0.,12.0
1979-07-03 03:57:13.540 ,3,0,0.,12.0,0.,12.0,0.,12.0,0.,12.0
1979-07-03 03:57:25.540 ,3,0,0.,12.0,0.,12.0,0.,12.0,0.,12.0
1979-07-03 03:57:37.540 ,2,1,0.,12.0,0.,12.0,0.,12.0,0.,12.0
1979-07-03 03:57:49.540 ,2,1,0.,12.0,0.,12.0,0.,12.0,0.,12.0
1979-07-03 03:58:01.540 ,2,0,0.,12.0,0.,12.0,0.,12.0,0.,12.0
1979-07-03 03:58:13.540 ,2,0,0.,12.0,0.,12.0,0.,12.0,0.,12.0
1979-07-03 03:58:25.540 ,1,1,0.,12.0,0.,12.0,0.,12.0,0.,12.0
1979-07-03 03:58:37.540 ,1,1,0.,12.0,0.,12.0,0.,12.0,0.,12.0
1979-07-03 03:58:49.540 ,1,0,0.,12.0,0.,12.0,0.,12.0,0.,12.0
1979-07-03 03:59:01.540 ,1,0,0.,12.0,0.,12.0,0.,12.0,0.,12.0
1979-07-03 03:59:13.540 ,0,1,0.,12.0,0.,12.0,0.,12.0,0.,12.0
1979-07-03 03:59:25.540 ,0,1,0.,12.0,0.,12.0,0.,12.0,0.,12.0
1979-07-03 03:59:37.540 ,0,0,0.,12.0,0.,12.0,0.,12.0,0.,12.0
1979-07-03 03:59:49.540 ,0,0,0.,12.0,0.,12.0,0.,12.0,0.,12.0
1979-07-03 04:00:01.540 ,0,1,0.,12.0,0.,12.0,0.,12.0,0.,12.0
1979-07-03 04:00:13.540 ,0,1,0.,12.0,0.,12.0,0.,12.0,0.,12.0
1979-07-03 04:00:25.540 ,0,0,0.,12.0,0.,12.0,0.,12.0,0.,12.0
1979-07-03 04:00:37.540 ,0,0,0.,12.0,0.,12.0,0.,12.0,0.,12.0
1979-07-03 04:00:49.540 ,1,1,0.,12.0,0.,12.0,0.,12.0,0.,12.0
1979-07-03 04:01:01.540 ,1,1,0.,12.0,0.,12.0,0.,12.0,0.,12.0
1979-07-03 04:01:13.540 ,1,0,0.,12.0,0.,12.0,0.,12.0,0.,12.0
1979-07-03 04:01:25.540 ,1,0,0.,12.0,0.,12.0,0.,12.0,0.,12.0
1979-07-03 04:01:37.540 ,2,1,0.,12.0,0.,12.0,0.,12.0,0.,12.0
1979-07-03 04:01:49.540 ,2,1,0.,12.0,0.,12.0,0.,12.0,0.,12.0
1979-07-03 04:02:01.540 ,2,0,0.,12.0,0.,12.0,0.,12.0,0.,12.0
1979-07-03 04:02:13.540 ,2,0,0.,12.0,0.,12.0,0.,12.0,0.,12.0
1979-07-03 04:02:25.540 ,3,1,0.,12.0,0.,12.0,0.,12.0,0.,12.0
1979-07-03 04:02:37.540 ,3,1,0.,12.0,0.,12.0,0.,12.0,0.,12.0
1979-07-03 04:02:49.540 ,3,0,0.,12.0,0.,12.0,0.,12.0,0.,12.0
1979-07-03 04:03:01.540 ,3,0,0.,12.0,0.,12.0,0.,12.0,0.,12.0
1979-07-03 04:03:13.540 ,4,1,0.,12.0,0.,12.0,0.,12.0,0.,12.0
1979-07-03 04:03:25.540 ,4,1,0.,12.0,0.,12.0,0.,12.0,0.,12.0
1979-07-03 04:03:37.540 ,4,0,0.,12.0,0.,12.0,0.,12.0,0.,12.0
1979-07-03 04:03:49.540 ,4,0,0.,12.0,0.,12.0,0.,12.0,0.,12.0
1979-07-03 04:04:01.540 ,5,1,0.,12.0,0.,12.0,0.,12.0,0.,12.0
1979-07-03 04:04:13.540 ,5,1,0.,12.0,0.,12.0,0.,12.0,0.,12.0
1979-07-03 04:04:25.540 ,5,0,0.,12.0,0.,12.0,0.,12.0,0.,12.0
1979-07-03 04:04:37.540 ,5,0,0.,12.0,0.,12.0,0.,12.0,0.,12.0
1979-07-03 04:04:49.540 ,6,1,0.,12.0,0.,12.0,0.,12.0,0.,12.0
1979-07-03 04:05:01.540 ,6,1,0.,12.0,0.,12.0,0.,12.0,0.,12.0
1979-07-03 04:05:13.540 ,6,0,0.,12.0,0.,12.0,0.,12.0,0.,12.0
1979-07-03 04:05:25.540 ,6,0,0.,12.0,0.,12.0,0.,12.0,0.,12.0
1979-07-03 04:05:37.540 ,7,1,0.,12.0,0.,12.0,0.,12.0,0.,12.0
1979-07-03 04:05:49.540 ,7,1,0.,12.0,0.,12.0,0.,12.0,0.,12.0
1979-07-03 04:06:01.540 ,7,0,0.,12.0,0.,12.0,0.,12.0,0.,12.0
1979-07-03 04:06:13.540 ,7,0,0.,12.0,0.,12.0,0.,12.0,0.,12.0
1979-07-03 04:06:25.540 ,7,1,0.,12.0,0.,12.0,0.,12.0,0.,12.0
1979-07-03 04:06:37.540 ,7,1,0.,12.0,0.,12.0,0.,12.0,0.,12.0
1979-07-03 04:06:49.540 ,7,0,0.,12.0,0.,12.0,0.,12.0,0.,12.0
1979-07-03 04:07:01.540 ,7,0,0.,12.0,0.,12.0,0.,12.0,0.,12.0
1979-07-03 04:07:13.540 ,6,1,0.,12.0,0.,12.0,0.,12.0,0.,12.0
1979-07-03 04:07:25.540 ,6,1,0.,12.0,0.,12.0,0.,12.0,0.,12.0
1979-07-03 04:07:37.540 ,6,0,0.,12.0,0.,12.0,0.,12.0,0.,12.0
1979-07-03 04:07:49.540 ,6,0,0.,12.0,0.,12.0,0.,12.0,0.,12.0
1979-07-03 04:08:01.540 ,5,1,0.,12.0,0.,12.0,0.,12.0,0.,12.0
1979-07-03 04:08:13.540 ,5,1,0.,12.0,0.,12.0,0.,12.0,0.,12.0
1979-07-03 04:08:25.540 ,5,0,0.,12.0,0.,12.0,0.,12.0,0.,12.0
1979-07-03 04:08:37.540 ,5,0,0.,12.0,0.,12.0,0.,12.0,0.,12.0
1979-07-03 04:08:49.540 ,4,1,0.,12.0,0.,12.0,0.,12.0,0.,12.0
1979-07-03 04:09:01.540 ,4,1,0.,12.0,0.,12.0,0.,12.0,0.,12.0
1979-07-03 04:09:13.540 ,4,0,0.,12.0,0.,12.0,0.,12.0,0.,12.0
1979-07-03 04:09:25.540 ,4,0,0.,12.0,0.,12.0,0.,12.0,0.,12.0
1979-07-03 04:09:37.540 ,3,1,0.,12.0,0.,12.0,0.,12.0,0.,12.0
1979-07-03 04:09:49.540 ,3,1,0.,12.0,0.,12.0,0.,12.0,0.,12.0
1979-07-03 04:10:01.540 ,3,0,0.,12.0,0.,12.0,0.,12.0,0.,12.0
1979-07-03 04:10:13.540 ,3,0,0.,12.0,0.,12.0,0.,12.0,0.,12.0
1979-07-03 04:10:25.540 ,2,1,0.,12.0,0.,12.0,0.,12.0,0.,12.0
1979-07-03 04:10:37.540 ,2,1,0.,12.0,0.,12.0,0.,12.0,0.,12.0
1979-07-03 04:10:49.540 ,2,0,0.,12.0,0.,12.0,0.,12.0,0.,12.0
1979-07-03 04:11:01.540 ,2,0,0.,12.0,0.,12.0,0.,12.0,0.,12.0
1979-07-03 04:11:13.540 ,1,1,0.,12.0,0.,12.0,0.,12.0,0.,12.0
1979-07-03 04:11:25.540 ,1,1,0.,12.0,0.,12.0,0.,12.0,0.,12.0
1979-07-03 04:11:37.540 ,1,0,0.,12.0,0.,12.0,0.,12.0,0.,12.0
1979-07-03 04:11:49.540 ,1,0,0.,12.0,0.,12.0,0.,12.0,0.,12.0
1979-07-03 04:12:01.540 ,0,1,0.,12.0,0.,12.0,0.,12.0,0.,12.0
1979-07-03 04:12:13.540 ,0,1,0.,12.0,0.,12.0,0.,12.0,0.,12.0
1979-07-03 04:12:25.540 ,0,0,0.,12.0,0.,12.0,0.,12.0,0.,12.0
1979-07-03 04:12:37.540 ,0,0,0.,12.0,0.,12.0,0.,12.0,0.,12.0
1979-07-03 04:12:49.540 ,0,1,0.,12.0,0.,12.0,0.,12.0,0.,12.0
1979-07-03 04:13:01.540 ,0,1,0.,12.0,0.,12.0,0.,12.0,0.,12.0
1979-07-03 04:13:13.540 ,0,0,0.,12.0,0.,12.0,0.,12.0,0.,12.0
1979-07-03 04:13:25.540 ,0,0,0.,12.0,0.,12.0,0.,12.0,0.,12.0
1979-07-03 04:13:37.540 ,1,1,0.,12.0,0.,12.0,0.,12.0,0.,12.0
1979-07-03 04:13:49.540 ,1,1,0.,12.0,0.,12.0,0.,12.0,0.,12.0
1979-07-03 04:14:01.540 ,1,0,0.,12.0,0.,12.0,0.,12.0,0.,12.0
1979-07-03 04:14:13.540 ,1,0,0.,12.0,0.,12.0,0.,12.0,0.,12.0
1979-07-03 04:14:25.540 ,2,1,0.,12.0,0.,12.0,0.,12.0,0.,12.0
1979-07-03 04:14:37.540 ,2,1,0.,12.0,0.,12.0,0.,12.0,0.,12.0
1979-07-03 04:14:49.540 ,2,0,0.,12.0,0.,12.0,0.,12.0,0.,12.0
1979-07-03 04:15:01.540 ,2,0,0.,12.0,0.,12.0,0.,12.0,0.,12.0
1979-07-03 04:15:13.540 ,3,1,0.,12.0,0.,12.0,0.,12.0,0.,12.0
1979-07-03 04:15:25.540 ,3,1,0.,12.0,0.,12.0,0.,12.0,0.,12.0
1979-07-03 04:15:37.540 ,3,0,0.,12.0,0.,12.0,0.,12.0,0.,12.0
1979-07-03 04:15:49.540 ,3,0,0.,12.0,0.,12.0,0.,12.0,0.,12.0
1979-07-03 04:16:01.540 ,4,1,0.,12.0,0.,12.0,0.,12.0,0.,12.0
1979-07-03 04:16:13.540 ,4,1,0.,12.0,0.,12.0,0.,12.0,0.,12.0
1979-07-03 04:16:25.540 ,4,0,0.,12.0,0.,12.0,0.,12.0,0.,12.0
1979-07-03 04:16:37.540 ,4,0,0.,12.0,0.,12.0,0.,12.0,0.,12.0
1979-07-03 04:16:49.540 ,5,1,0.,12.0,0.,12.0,0.,12.0,0.,12.0
1979-07-03 04:17:01.540 ,5,1,0.,12.0,0.,12.0,0.,12.0,0.,12.0
1979-07-03 04:17:13.540 ,5,0,0.,12.0,0.,12.0,0.,12.0,0.,12.0
1979-07-03 04:17:25.540 ,5,0,0.,12.0,0.,12.0,0.,12.0,0.,12.0